EHI
0 0 0 0 0 0 0 0 0 0 0 0 0 0 0 0 0 0 0 0 0 0 0 0 0 0 0 0 0 0 0 0 0 0 0 0 0 0
0 0 0 0 0 0 0 0 0 0 0 0 0 0 0 0 0 0 0 0 0 0 0 0 0 0 0 0 0 0 0 0 0 0 0 0 0 0
0 0 0 0 0 0 0 0 0 0 0 0 0 0 0 0 0 0 0 0 0 0 0 0 0 0 0 0 0 0 0 0 0 0 0 0 0 0
0 0 0 0 0 0 0 0 0 0 0 0 0 0 0 0 0 0 0 0 0 0 0 0 0 0 0 0 0 0 0 0 0 0 0 0 0 0
0 0 0 0 0 0 0 0 0 0 0 0 0 0 0 0 0 0 0 0 0 0 0 0 0 0 0 0 0 0 0 0 0 0 0 0 0 0
0 0 0 0 0 0 0 0 0 0 0 0 0 0 0 0 0 0 0 0 0 0 0 0 0 0 0 0 0 0 0 0 0 0 0 0 0 0
0 0 0 0 0 0 0 0 0 0 0 0 0 0 0 0 0 0 0 0 0 0 0 0 0 0 0 0 0 0 0 0 0 0 0 0 0 0
0 0 0 0 0 0 0 0 0 0 0 0 0 0 0 0 0 0 0 0 0 0 0 0 0 0 0 0 0 0 0 0 0 0 0 0 0 0
0 0 0 0 0 0 0 0 0 0 0 0 0 0 0 0 0 0 0 0 0 0 0 0 0 0 0 0 0 0 0 0 0 0 0 0 0 0
0 0 0 0 0 0 0 0 0 0 0 0 0 0 0 0 0 0 0 0 0 0 0 0 0 0 0 0 0 0 0 0 0 0 0 0 0 0
0 0 0 0 0 0 0 0 0 0 0 0 0 0 0 0 0 0 0 0 0 0 0 0 0 0 0 0 0 0 0 0 0 0 0 0 0 0
0 0 0 0 0 0 0 0 0 0 0 0 0 0 0 0 0 0 0 0 0 0 0 0 0 0 0 0 0 0 0 0 0 0 0 0 0 0
0 0 0 0 0 0 0 0 0 0 0 0 0 0 0 0 0 0 0 0 0 0 0 0 0 0 0 0 0 0 0 0 0 0 0 0 0 0
0 0 0 0 0 0 0 0 0 0 0 0 0 0 0 0 0 0 0 0 0 0 0 0 0 0 0 0 0 0 0 0 0 0 0 0 0 0
0 0 0 0 0 0 0 0 0 0 0 0 0 0 0 0 0 0 0 0 0 0 0 0 0 0 0 0 0 0 0 0 0 0 0 0 0 0
0 0 0 0 0 0 0 0 0 0 0 0 0 0 0 0 0 0 0 0 0 0 0 0 0 0 0 0 0 0 0 0 0 0 0 0 0 0
0 0 0 0 0 0 0 0 0 0 0 0 0 0 0 0 0 0 0 0 0 0 0 0 0 0 0 0 0 0 0 0 0 0 0 0 0 0
0 0 0 0 0 0 0 0 0 0 0 0 0 0 0 0 0 0 0 0 0 0 0 0 0 0 0 0 0 0 0 0 0 0 0 0 0 0
0 0 0 0 0 0 0 0 0 0 0 0 0 0 0 0 0 0 0 0 0 0 0 0 0 0 0 0 0 0 0 0 0 0 0 0 0 0
0 0 0 0 0 0 0 0 0 0 0 0 0 0 0 0 0 0 0 0 0 0 0 0 0 0 0 0 0 0 0 0 0 0 0 0 0 0
0 0 0 0 0 0 0 0 0 0 0 0 0 0 0 0 0 0 0 0 0 0 0 0 0 0 0 0 0 0 0 0 0 0 0 0 0 0
0 0 0 0 0 0 0 0 0 0 0 0 0 0 0 0 0 0 0 0 0 0 0 0 0 0 0 0 0 0 0 0 0 0 0 0 0 0
0 0 0 0 0 0 0 0 0 0 0 0 0 0 0 0 0 0 0 0 0 0 0 0 0 0 0 0 0 0 0 0 0 0 0 0 0 0
Wind_Speed
1 1 1 1 2 2 3 3 4 2 1 2 1 1 1 0 0 1 1 4 5 5 6 6 7 7 7 8 8 8 8 9 9 9 9 9 9 9
1 1 1 1 1 2 2 2 2 4 2 1 1 1 0 1 2 1 1 3 3 4 4 4 5 5 5 6 6 7 7 7 8 8 8 8 8 8
0 2 1 1 1 1 2 2 2 3 3 1 1 0 1 1 0 0 0 0 1 2 2 3 3 4 4 4 5 5 6 6 6 6 6 6 6 6
1 1 1 1 2 2 2 2 2 2 4 2 0 0 0 1 1 1 0 1 0 0 1 2 2 3 3 3 3 4 4 5 6 5 5 6 6 6
2 2 2 2 2 2 2 2 2 2 2 3 1 0 1 0 1 1 1 1 0 0 1 0 1 2 2 2 2 3 3 4 4 5 5 5 5 5
1 2 2 3 4 3 3 3 3 3 3 3 1 0 0 1 1 0 1 1 1 1 1 1 1 1 1 1 1 2 2 2 2 3 3 3 4 4
0 1 2 4 5 5 4 4 4 3 3 2 1 1 0 0 1 1 1 1 1 1 1 1 1 1 2 2 1 1 1 1 1 1 2 2 3 4
1 0 1 2 4 5 6 7 7 6 5 3 2 2 2 2 1 1 1 0 1 1 1 1 0 1 2 1 2 1 1 1 1 1 2 2 3 3
2 1 1 1 2 3 4 4 4 6 8 6 5 4 4 4 3 2 2 2 3 2 1 1 1 1 2 1 2 2 1 1 1 1 2 2 3 3
2 3 2 2 3 4 4 3 1 2 4 4 5 5 5 4 4 4 4 2 1 1 2 1 1 1 2 2 2 2 1 2 1 2 2 2 2 3
2 2 3 3 5 6 4 3 2 1 2 4 4 3 3 4 4 3 2 2 1 2 1 2 1 1 1 2 2 3 2 2 2 2 2 2 2 2
1 2 4 4 6 6 4 4 3 3 2 1 1 1 1 1 4 3 4 3 2 2 2 2 1 1 1 2 1 2 2 2 3 3 3 3 2 1
2 2 2 5 5 6 6 4 6 4 2 2 1 0 0 0 1 2 2 3 3 3 2 3 2 1 1 2 2 2 1 1 1 2 3 4 3 1
3 2 2 4 4 5 5 5 5 4 2 2 1 1 1 1 1 1 2 2 3 3 3 3 2 3 2 1 2 2 2 2 1 2 2 3 3 3
2 3 3 3 3 3 4 5 4 3 2 2 2 2 2 2 1 0 1 1 1 1 1 2 3 2 2 3 3 2 2 2 2 2 2 2 2 2
1 2 3 2 2 2 2 1 1 2 3 2 2 2 1 0 1 1 1 0 0 2 2 1 2 3 3 3 3 3 2 2 2 2 2 2 3 3
3 2 2 1 1 1 0 0 0 1 1 1 1 1 1 1 1 1 1 1 1 2 2 1 1 1 3 3 2 3 3 3 3 2 2 3 4 3
4 2 2 2 2 2 1 1 1 1 2 2 2 2 2 2 2 1 1 2 2 2 2 2 1 1 1 2 4 4 3 3 3 2 2 3 4 4
3 3 3 3 2 2 2 2 1 1 1 1 2 2 2 1 1 2 2 2 2 3 3 2 1 1 2 4 4 3 3 3 2 2 2 3 4 4
2 3 3 3 3 2 2 2 2 1 1 1 2 2 2 2 2 2 2 3 3 3 2 2 2 3 4 4 3 3 2 2 2 3 3 2 3 4
3 3 3 3 3 3 3 2 2 2 2 2 2 2 2 2 2 2 2 3 3 3 4 4 5 5 2 0 1 2 2 2 2 2 2 2 2 2
3 3 3 3 3 3 3 2 2 2 2 2 2 2 2 2 3 3 3 3 3 4 4 4 2 1 1 3 4 3 3 3 3 3 3 1 1 2
3 3 3 3 3 3 3 3 3 2 2 2 2 2 2 2 2 2 3 3 3 3 3 2 1 1 2 3 3 3 3 3 2 2 3 5 5 6
Wind_Direction
185 169 161 170 159 152 146 148 144 150 269 280 298 305 264 151 118 88 72 78 80 77 73 67 60 53 50 49 47 44 43 41 40 38 37 38 37 36
177 149 156 168 148 143 145 141 138 146 177 251 249 262 239 137 146 133 107 90 91 88 82 73 63 56 53 51 47 43 40 38 36 35 35 35 34 32
145 146 162 153 140 141 133 126 133 133 140 256 291 288 125 146 110 130 99 44 55 99 94 80 67 59 56 51 46 41 38 36 32 31 34 33 32 30
210 157 174 152 143 145 138 143 147 147 143 161 237 20 201 206 199 205 216 186 194 99 116 89 73 64 62 56 50 45 41 36 35 34 33 30 31 31
203 188 196 156 153 146 142 147 144 131 125 138 156 44 351 355 64 15 1 331 264 191 151 101 68 63 60 57 50 43 44 40 37 38 33 27 23 22
202 198 192 173 176 167 156 157 137 119 112 115 119 90 338 334 79 74 351 339 322 5 33 65 30 356 0 44 54 50 43 39 39 37 32 24 18 12
170 214 199 185 183 177 169 166 150 137 132 126 136 110 309 357 237 213 207 297 328 334 13 359 343 333 319 312 319 14 26 11 14 21 20 16 13 7
170 258 215 188 180 180 176 172 166 162 165 163 170 180 222 221 213 182 179 119 305 301 128 303 64 299 293 289 324 333 322 321 328 347 0 6 6 2
189 193 181 144 143 141 146 150 166 174 171 170 174 199 205 207 182 186 192 181 214 247 126 290 314 291 287 318 344 340 344 357 359 5 2 354 353 347
206 199 189 190 172 150 138 133 163 201 194 185 190 203 204 199 185 185 187 181 259 298 134 198 287 277 307 306 327 334 347 342 340 344 341 342 344 346
223 207 192 191 184 160 145 154 179 239 209 183 186 196 196 185 165 133 140 136 242 282 193 169 247 278 312 307 318 335 336 328 315 312 313 312 319 332
227 214 205 198 190 176 169 170 192 227 195 162 178 234 239 180 164 172 179 172 183 249 231 172 206 155 308 298 304 312 308 302 298 303 303 299 299 308
209 227 216 196 193 190 185 187 197 192 176 171 178 234 310 242 209 196 187 178 181 224 222 167 179 175 193 271 301 286 263 279 290 295 292 292 286 229
208 218 205 190 190 188 191 188 178 158 138 138 156 233 240 245 242 216 205 201 200 215 212 168 178 187 186 223 268 283 276 263 251 270 275 298 289 278
207 197 182 171 167 173 176 170 159 146 145 162 202 227 228 225 213 203 311 271 278 268 227 189 189 195 185 206 235 251 276 279 246 253 259 260 260 262
167 131 121 111 104 104 104 130 145 157 161 186 214 235 236 196 199 193 206 223 357 311 297 243 211 188 201 221 221 248 243 253 270 260 255 264 267 253
129 93 85 85 100 80 44 61 114 153 181 198 195 204 213 224 247 233 215 187 204 260 290 297 263 215 208 203 231 247 248 257 256 253 254 271 270 263
134 145 162 172 182 187 187 204 209 209 211 203 198 202 214 223 237 229 207 207 229 250 261 272 287 10 346 294 231 239 252 256 264 253 234 252 275 276
156 179 182 185 192 189 188 192 209 227 210 193 206 211 213 223 224 227 221 225 242 253 257 244 208 189 247 276 282 235 235 259 264 262 249 238 259 274
192 188 193 192 190 189 196 205 202 201 198 208 217 219 217 220 227 236 230 224 234 247 260 248 223 214 224 244 259 282 264 240 242 261 269 268 276 292
202 198 196 193 191 190 195 197 194 201 209 211 221 222 218 214 231 241 246 246 235 239 247 254 250 237 226 174 266 289 296 281 258 259 267 274 293 297
197 197 199 198 190 186 184 180 186 205 215 217 222 226 226 218 229 243 244 248 245 240 248 262 271 200 184 213 243 261 281 307 315 322 314 280 258 266
199 198 198 192 188 179 176 179 188 206 212 216 220 228 231 236 240 244 251 251 254 248 244 256 267 238 230 228 240 257 277 293 309 333 321 319 300 298